星链-4504 (STARLINK-4504 )

导读 | 豆包AI

STARLINK-4504是美国SpaceX公司星链星座的成员,于2022年8月19日发射升空,属于低轨宽带通信卫星。该星遵循星链卫星设计,采用平板构型,搭载氪工质霍尔推进器,配备Ku/Ka波段通信载荷,具备自主避撞能力,旨在为全球提供高速低延迟互联网接入,助力偏远地区网络覆盖,是SpaceX构建大规模近地轨道通信网络的重要一环。

基本信息
目录编号:
53555
目录名称:
STARLINK-4504
国际标识:
2022-101AE
轨道中心:
EARTH
卫星名称:
星链-4504
卫星全名:
星链-4504 (STARLINK-4504 )
卫星状态:
在轨 (已飞行1304 天)
发射日期:
2022-08-19 UTC
国别 :
美国 (US)
星等 :
--
轨道信息
数据来源 国际轨道数据
星历时间: 2026-03-14T13:46:29+0800
1天前
查看轨道信息
半长轴: 6917.827km
偏心率: 0.000126
轨道倾角: 53.219°
近地点辐角 98.924°
升交点赤经 43.688°
平近点角 261.189°
近地点: 538.818km
远地点: 540.562km
周期: 95.436分钟
每日圈数: 15.088575
详细信息
固有亮度:
5
最大亮度:
2.5
卫星平台:
Starlink v1.5
覆盖范围:
全球
运营商:
太空探索技术公司
运营商所在国:
美国
制造商(研发单位):
太空探索技术公司
制造商所在国:
美国
使用方式:
暂无
卫星简介
星链(Starlink)计划是由太空探索技术公司(SpaceX)提出的一个巨型低轨卫星互联网星座项目,计划在2019年至2024年间在太空搭建由约1.2万颗卫星组成的“星链”网络,其中1584颗将部署在地球上空550千米处的近地轨道,并从2020年开始工作。该卫星仍在工作。
2D轨道图
3D轨道图
轨道高度分析图
轨道倾角分析图
轨道综合分析图
查看轨道综合分析图